| time (UTC) | temp F | wind direction | speed knots | gust knots | rain 1hr in | rain 24hr in | rain mn in | humidity % | barometer mb |
| 20260507203044 | 91 | 0 | 1.7 | 23.5 | 0.00 | 0.00 | 0.00 | 12 | 1011.6 |
| 20260507201609 | 91 | 0 | 0.0 | 16.5 | 0.00 | 0.00 | 0.00 | 13 | 1011.8 |
| 20260507194556 | 90 | 0 | 1.7 | 13.9 | 0.00 | 0.00 | 0.00 | 13 | 1012.2 |
| 20260507193048 | 90 | 328 | 0.0 | 13.9 | 0.00 | 0.00 | 0.00 | 13 | 1012.5 |
| 20260507191550 | 90 | 0 | 0.0 | 10.4 | 0.00 | 0.00 | 0.00 | 13 | 1012.8 |
| 20260507190045 | 89 | 0 | 0.9 | 19.1 | 0.00 | 0.00 | 0.00 | 14 | 1013.0 |
| 20260507184543 | 88 | 0 | 1.7 | 13.0 | 0.00 | 0.00 | 0.00 | 15 | 1013.1 |
| 20260507183050 | 86 | 0 | 5.2 | 19.1 | 0.00 | 0.00 | 0.00 | 16 | 1013.3 |
| 20260507181549 | 86 | 0 | 0.0 | 8.7 | 0.00 | 0.00 | 0.00 | 16 | 1013.5 |
| 20260507180051 | 84 | 0 | 0.0 | 8.7 | 0.00 | 0.00 | 0.00 | 17 | 1013.7 |
| 20260507174549 | 83 | 0 | 0.0 | 8.7 | 0.00 | 0.00 | 0.00 | 16 | 1013.8 |
| 20260507173056 | 83 | 350 | 0.0 | 4.3 | 0.00 | 0.00 | 0.00 | 20 | 1014.1 |
| 20260507171556 | 81 | 0 | 0.0 | 3.5 | 0.00 | 0.00 | 0.00 | 20 | 1014.1 |
| 20260507170054 | 81 | 0 | 0.0 | 3.5 | 0.00 | 0.00 | 0.00 | 22 | 1014.1 |
| 20260507164544 | 81 | 0 | 0.0 | 5.2 | 0.00 | 0.00 | 0.00 | 23 | 1014.3 |
| 20260507163048 | 82 | 0 | 0.0 | 1.7 | 0.00 | 0.00 | 0.00 | 23 | 1014.4 |
| 20260507161545 | 81 | 0 | 0.0 | 5.2 | 0.00 | 0.00 | 0.00 | 23 | 1014.4 |
| 20260507160044 | 79 | 0 | 0.0 | 3.5 | 0.00 | 0.00 | 0.00 | 24 | 1014.6 |
| 20260507154544 | 77 | 0 | 0.0 | 0.9 | 0.00 | 0.00 | 0.00 | 26 | 1014.7 |
| 20260507153042 | 73 | 0 | 0.0 | 0.9 | 0.00 | 0.00 | 0.00 | 26 | 1014.7 |
| 20260507151550 | 73 | 0 | 0.0 | 0.9 | 0.00 | 0.00 | 0.00 | 28 | 1014.7 |
| 20260507150056 | 73 | 0 | 0.0 | 0.9 | 0.00 | 0.00 | 0.00 | 29 | 1014.8 |
| 20260507144546 | 70 | 0 | 0.0 | 0.0 | 0.00 | 0.00 | 0.00 | 30 | 1015.0 |
| 20260507143055 | 68 | 15 | 0.0 | 0.9 | 0.00 | 0.00 | 0.00 | 33 | 1014.9 |
| 20260507141555 | 66 | 0 | 0.0 | 0.0 | 0.00 | 0.00 | 0.00 | 35 | 1014.9 |
| 20260507140107 | 64 | 0 | 0.0 | 3.5 | 0.00 | 0.00 | 0.00 | 38 | 1014.8 |
| 20260507134550 | 61 | 0 | 0.0 | 1.7 | 0.00 | 0.00 | 0.00 | 39 | 1014.6 |
| 20260507133048 | 59 | 0 | 0.0 | 5.2 | 0.00 | 0.00 | 0.00 | 43 | 1014.4 |
| 20260507131547 | 58 | 0 | 0.0 | 0.9 | 0.00 | 0.00 | 0.00 | 44 | 1014.2 |
| 20260507130047 | 58 | 0 | 0.0 | 0.0 | 0.00 | 0.00 | 0.00 | 43 | 1014.0 |
| 20260507124552 | 58 | 0 | 0.0 | 0.0 | 0.00 | 0.00 | 0.00 | 42 | 1014.0 |
| 20260507123049 | 58 | 0 | 0.0 | 0.9 | 0.00 | 0.00 | 0.00 | 41 | 1014.1 |
| 20260507121549 | 59 | 0 | 0.0 | 0.0 | 0.00 | 0.00 | 0.00 | 42 | 1014.1 |
| 20260507120058 | 59 | 0 | 0.0 | 0.0 | 0.00 | 0.00 | 0.00 | 43 | 1014.1 |
| 20260507114545 | 59 | 0 | 0.0 | 0.0 | 0.00 | 0.00 | 0.00 | 42 | 1014.1 |
| 20260507113053 | 60 | 0 | 0.0 | 0.9 | 0.00 | 0.00 | 0.00 | 39 | 1014.0 |
| 20260507111551 | 61 | 0 | 0.0 | 0.9 | 0.00 | 0.00 | 0.00 | 43 | 1014.0 |
| 20260507110049 | 60 | 0 | 0.0 | 0.0 | 0.00 | 0.00 | 0.00 | 44 | 1014.2 |
| 20260507104550 | 61 | 0 | 0.0 | 0.0 | 0.00 | 0.00 | 0.00 | 44 | 1014.0 |
| 20260507103046 | 61 | 0 | 0.0 | 0.0 | 0.00 | 0.00 | 0.00 | 42 | 1014.2 |
| 20260507101603 | 62 | 0 | 0.0 | 0.0 | 0.00 | 0.00 | 0.00 | 43 | 1014.2 |
| 20260507100053 | 62 | 0 | 0.0 | 0.0 | 0.00 | 0.00 | 0.00 | 43 | 1014.4 |
| 20260507094556 | 62 | 0 | 0.0 | 0.0 | 0.00 | 0.00 | 0.00 | 44 | 1014.5 |
| 20260507093052 | 62 | 0 | 0.0 | 0.0 | 0.00 | 0.00 | 0.00 | 43 | 1014.5 |
| 20260507091600 | 62 | 0 | 0.0 | 0.0 | 0.00 | 0.00 | 0.00 | 42 | 1014.7 |
| 20260507090107 | 63 | 0 | 0.0 | 0.0 | 0.00 | 0.00 | 0.00 | 40 | 1014.7 |
| 20260507071548 | 66 | 0 | 0.0 | 0.0 | 0.00 | 0.00 | 0.00 | 34 | 1015.1 |
| 20260507070137 | 66 | 0 | 0.0 | 0.0 | 0.00 | 0.00 | 0.00 | 34 | 1015.0 |
| 20260507064553 | 67 | 0 | 0.0 | 0.0 | 0.00 | 0.00 | 0.00 | 33 | 1015.1 |
| 20260507063055 | 68 | 0 | 0.0 | 0.0 | 0.00 | 0.00 | 0.00 | 32 | 1015.0 |
| 20260507061552 | 68 | 0 | 0.0 | 0.0 | 0.00 | 0.00 | 0.00 | 32 | 1015.0 |
| 20260507060054 | 69 | 0 | 0.0 | 0.0 | 0.00 | 0.00 | 0.00 | 30 | 1015.0 |
| 20260507054552 | 70 | 0 | 0.0 | 0.0 | 0.00 | 0.00 | 0.00 | 30 | 1014.9 |
| 20260507053049 | 70 | 0 | 0.0 | 0.0 | 0.00 | 0.00 | 0.00 | 30 | 1014.9 |
| 20260507051546 | 71 | 0 | 0.0 | 0.0 | 0.00 | 0.00 | 0.00 | 29 | 1015.0 |
| 20260507050051 | 72 | 0 | 0.0 | 0.0 | 0.00 | 0.00 | 0.00 | 29 | 1014.9 |
| 20260507044550 | 72 | 0 | 0.0 | 0.0 | 0.00 | 0.00 | 0.00 | 29 | 1014.9 |
| 20260507043049 | 73 | 0 | 0.0 | 0.0 | 0.00 | 0.00 | 0.00 | 28 | 1014.7 |
| 20260507041552 | 74 | 0 | 0.0 | 0.0 | 0.00 | 0.00 | 0.00 | 28 | 1014.5 |
| 20260507040049 | 74 | 0 | 0.0 | 0.0 | 0.00 | 0.00 | 0.00 | 26 | 1014.3 |
| 20260507034547 | 75 | 0 | 0.0 | 0.0 | 0.00 | 0.00 | 0.00 | 25 | 1014.1 |
| 20260507033052 | 76 | 0 | 0.0 | 0.0 | 0.00 | 0.00 | 0.00 | 25 | 1014.1 |
| 20260507031550 | 76 | 0 | 0.0 | 0.0 | 0.00 | 0.00 | 0.00 | 25 | 1014.0 |
| 20260507030048 | 77 | 0 | 0.0 | 0.0 | 0.00 | 0.00 | 0.00 | 24 | 1013.8 |
| 20260507024545 | 78 | 0 | 0.0 | 0.0 | 0.00 | 0.00 | 0.00 | 23 | 1013.7 |
| 20260507023044 | 79 | 0 | 0.0 | 0.0 | 0.00 | 0.00 | 0.00 | 22 | 1013.6 |
| 20260507021543 | 80 | 0 | 0.0 | 0.9 | 0.00 | 0.00 | 0.00 | 21 | 1013.4 |
| 20260507020056 | 81 | 0 | 0.0 | 0.0 | 0.00 | 0.00 | 0.00 | 21 | 1013.4 |
| 20260507014607 | 81 | 0 | 0.0 | 3.5 | 0.00 | 0.00 | 0.00 | 20 | 1013.4 |
| 20260507013047 | 82 | 0 | 0.0 | 1.7 | 0.00 | 0.00 | 0.00 | 20 | 1013.4 |
| 20260507011545 | 82 | 0 | 0.0 | 0.9 | 0.00 | 0.00 | 0.00 | 20 | 1013.3 |
| 20260507010050 | 81 | 0 | 0.0 | 3.5 | 0.00 | 0.00 | 0.00 | 20 | 1013.4 |
| 20260507004550 | 81 | 0 | 0.0 | 13.9 | 0.00 | 0.00 | 0.00 | 20 | 1013.2 |
| 20260507003047 | 82 | 0 | 0.9 | 8.7 | 0.00 | 0.00 | 0.00 | 20 | 1013.2 |
| 20260507001558 | 82 | 0 | 0.0 | 11.3 | 0.00 | 0.00 | 0.00 | 20 | 1013.2 |
| 20260507000045 | 83 | 0 | 0.0 | 8.7 | 0.00 | 0.00 | 0.00 | 20 | 1013.1 |
| 20260506234544 | 83 | 52 | 1.7 | 16.5 | 0.00 | 0.00 | 0.00 | 20 | 1013.1 |
| 20260506233056 | 83 | 352 | 0.0 | 9.6 | 0.00 | 0.00 | 0.00 | 20 | 1013.1 |
| 20260506231542 | 83 | 314 | 0.0 | 13.0 | 0.00 | 0.00 | 0.00 | 20 | 1013.3 |
| 20260506230055 | 83 | 0 | 0.0 | 9.6 | 0.00 | 0.00 | 0.00 | 20 | 1013.4 |
| 20260506224546 | 83 | 190 | 0.0 | 9.6 | 0.00 | 0.00 | 0.00 | 20 | 1013.6 |
| 20260506223046 | 82 | 0 | 0.9 | 9.6 | 0.00 | 0.00 | 0.00 | 20 | 1013.8 |
| 20260506221545 | 81 | 0 | 3.5 | 19.1 | 0.00 | 0.00 | 0.00 | 21 | 1014.0 |
| 20260506220051 | 82 | 0 | 0.0 | 13.9 | 0.00 | 0.00 | 0.00 | 21 | 1014.1 |
| 20260506214551 | 81 | 0 | 0.0 | 6.1 | 0.00 | 0.00 | 0.00 | 22 | 1014.4 |
| 20260506213047 | 81 | 17 | 0.9 | 8.7 | 0.00 | 0.00 | 0.00 | 22 | 1014.7 |
| 20260506211547 | 81 | 0 | 1.7 | 7.0 | 0.00 | 0.00 | 0.00 | 22 | 1014.9 |
| 20260506210052 | 80 | 0 | 0.9 | 8.7 | 0.00 | 0.00 | 0.00 | 22 | 1015.0 |
| 20260506204551 | 80 | 0 | 0.9 | 24.3 | 0.00 | 0.00 | 0.00 | 22 | 1015.2 |